• MPC Preparation (Info)

  • MPEC 2014-Q85 : 2014 QT296

    The following Minor Planet Electronic Circular may be linked-to from your own Web pages, but must not otherwise be redistributed electronically.

    A form allowing access to any MPEC is at the bottom of this page.


    Read MPEC 2014-Q84 Read MPEC 2014-Q86


    M.P.E.C. 2014-Q85                                Issued 2014 Aug. 29, 14:07 UT
    
         The Minor Planet Electronic Circulars contain information on unusual
             minor planets and routine data on comets.  They are published
       on behalf of Commission 20 of the International Astronomical Union by the
              Minor Planet Center, Smithsonian Astrophysical Observatory,
                              Cambridge, MA 02138, U.S.A.
    
                 Prepared using the Tamkin Foundation Computer Network
    
                                  MPC@CFA.HARVARD.EDU
                URL https://www.minorplanetcenter.net/    ISSN 1523-6714
    
                                      2014 QT296
    
    Observations:
         K14QT6T* C2014 08 23.58759 02 22 41.540-06 42 26.68         21.5 wLEQ085F51
         K14QT6T  C2014 08 23.59757 02 22 41.146-06 43 05.33         21.6 wLEQ085F51
         K14QT6T  C2014 08 23.60761 02 22 40.721-06 43 44.65         21.8 wLEQ085F51
         K14QT6T  C2014 08 23.61759 02 22 40.311-06 44 22.98         22.0 wLEQ085F51
         K14QT6T _C2014 08 24.55885502 22 08.307-07 45 05.21         21.2 RtEQ085568
         K14QT6T _C2014 08 24.56010902 22 08.247-07 45 10.02         21.4 RtEQ085568
         K14QT6T _C2014 08 24.56136002 22 08.192-07 45 14.82         21.3 RtEQ085568
         K14QT6T KC2014 08 26.37282102 20 55.51 -09 40 58.4          21.3 VuEQ085H21
         K14QT6T KC2014 08 26.38665202 20 54.80 -09 41 51.3          21.4 VuEQ085H21
         K14QT6T KC2014 08 26.39922602 20 54.15 -09 42 38.7          21.1 VuEQ085H21
         K14QT6T KC2014 08 29.49025 02 18 18.92 -12 55 18.8          20.8 RoEQ085291
         K14QT6T KC2014 08 29.49326 02 18 18.72 -12 55 29.6          20.7 RoEQ085291
         K14QT6T KC2014 08 29.49626 02 18 18.55 -12 55 40.8          20.6 RoEQ085291
    
    Observer details:
    291 LPL/Spacewatch II.  Observer R. S. McMillan.  1.8-m f/2.7 reflector + CCD.
    568 Mauna Kea.  Observers R. J. Wainscoat, L. Wells.  Measurers M. Micheli,
        R. J. Wainscoat.  3.6-m Canada-France-Hawaii Telescope + CCD.
    F51 Pan-STARRS 1, Haleakala.  Observers N. Primak, A. Schultz, T. Goggia,
        M. Willman.  Measurers B. Bolin, K. Chambers, S. Chastel, L. Denneau,
        H. Flewelling, M. Huber, E. Magnier, E. Schunova, R. Wainscoat, C. Waters.
        1.8-m Ritchey-Chretien + CCD.
    H21 Astronomical Research Observatory, Westfield.  Observer R. Holmes.
        Measurers L. Buzzi, S. Foglia, T. Vorobjov, T. Linder.  0.81-m f/4.0
        astrograph + CCD.
    
    Orbital elements:
    2014 QT296                                               Earth MOID = 0.0677 AU
    Epoch 2014 Dec. 9.0 TT = JDT 2457000.5                  MPC
    M 108.50657              (2000.0)            P               Q
    n   0.56861606     Peri.   97.08078     -0.31844102     +0.92725887
    a   1.4429678      Node   151.75515     -0.94711934     -0.31987933
    e   0.4376413      Incl.   24.59220     +0.03950019     -0.19459754
    P   1.73           H   21.4           G   0.15           U   7
    Residuals in seconds of arc
    140823 F51  0.1-  0.0     140824 568  0.2-  0.0     140829 291  0.0   0.1-
    140823 F51  0.1+  0.1+    140824 568  0.1-  0.0     140829 291  0.1-  0.1+
    140823 F51  0.0   0.2-    140826 H21  0.1+  0.1+    140829 291  0.2+  0.0
    140823 F51  0.1+  0.2+    140826 H21  0.1+  0.2-
    140824 568  0.1-  0.1-    140826 H21  0.0   0.2+
    
    Ephemeris:
    2014 QT296               a,e,i = 1.44, 0.44, 25                  q = 0.8115
    Date    TT    R. A. (2000) Decl.     Delta      r     Elong.  Phase     V
    2014 07 30    02 18 20.5 +20 04 12   0.3782  1.0686    87.6    71.7    21.9
    ...
    2014 08 14    02 24 54.3 +03 48 55   0.3785  1.1724   105.5    56.4    21.7
    ...
    2014 08 22    02 23 27.9 -04 59 02   0.3867  1.2281   115.4    48.1    21.6
    ...
    2014 08 28    02 19 38.7 -11 22 55   0.3983  1.2694   122.5    42.2    21.6
    2014 08 29    02 18 46.3 -12 24 53   0.4008  1.2762   123.6    41.2    21.6
    2014 08 30    02 17 49.9 -13 26 08   0.4034  1.2831   124.7    40.3    21.6
    ...
    2014 09 05    02 10 49.1 -19 14 40   0.4227  1.3237   130.8    35.2    21.6
    ...
    2014 09 13    01 58 10.4 -25 54 18   0.4580  1.3766   136.9    30.0    21.7
    ...
    2014 09 28    01 28 12.7 -34 12 48   0.5544  1.4718   140.3    25.8    22.1
    
    A. U. Tomatic                (C) Copyright 2014 MPC           M.P.E.C. 2014-Q85
    

    Read MPEC 2014-Q84 Read MPEC 2014-Q86


    MPEC number:

    Enter an MPEC number in one of the following forms:

    • 1997-B01 (the full form)
    • J97B01 (the packed version of the full form)
    • B01 (the abbreviated form)